W5PDB Weather Reports


time (UTC)temp
C
wind
direction
speed
KPH
gust
KPH
rain 1hr
cm
rain 24hr
cm
rain mn
cm
humidity
%
barometer
mb
20260510094204 15 22 0.0 4.8 0.00 0.00 0.00 22 1019.8
20260510093205 15 248 0.0 6.4 0.00 0.00 0.00 19 1019.8
20260510092205 15 292 1.6 4.8 0.00 0.00 0.00 19 1019.7
20260510091205 16 270 0.0 4.8 0.00 0.00 0.00 17 1019.7
20260510090206 16 292 0.0 9.7 0.00 0.00 0.00 19 1019.7
20260510085205 16 292 6.4 8.0 0.00 0.00 0.00 16 1019.7
20260510082204 16 292 0.0 0.0 0.00 0.00 0.00 16 1019.7
20260510081205 16 292 0.0 0.0 0.00 0.00 0.00 16 1019.7
20260510080205 16 292 0.0 3.2 0.00 0.00 0.00 16 1019.7
20260510075206 16 248 0.0 9.7 0.00 0.00 0.00 17 1019.7
20260510074205 16 248 0.0 9.7 0.00 0.00 0.00 17 1019.7
20260510073205 16 248 6.4 9.7 0.00 0.00 0.00 17 1019.7
20260510072205 15 248 3.2 9.7 0.00 0.00 0.00 17 1019.7
20260510063206 16 225 0.0 0.0 0.00 0.00 0.00 14 1017.6
20260510062205 16 225 0.0 0.0 0.00 0.00 0.00 14 1017.5
20260510055205 17 248 0.0 6.4 0.00 0.00 0.00 13 1017.4
20260510054205 17 248 6.4 4.8 0.00 0.00 0.00 13 1016.3
20260510053206 17 292 0.0 4.8 0.00 0.00 0.00 13 1015.2
20260510052204 18 338 4.8 14.5 0.00 0.00 0.00 13 1015.2
20260510051205 18 135 9.7 22.5 0.00 0.00 0.00 13 1015.1
20260510050205 18 68 8.0 22.5 0.00 0.00 0.00 13 1015.1
20260510045205 18 135 16.1 29.0 0.00 0.00 0.00 12 1015.1
20260510044205 19 158 19.3 12.9 0.00 0.00 0.00 12 1014.0
20260510043205 19 135 12.9 0.0 0.00 0.00 0.00 12 1012.9
20260510040205 19 202 25.7 49.9 0.00 0.00 0.00 12 1013.9
20260510035205 19 202 25.7 49.9 0.00 0.00 0.00 12 1013.9
20260510033205 18 0.0 0.0 0.00 0.00 0.00 12 1017.2
20260510032205 19 0.0 0.0 0.00 0.00 0.00 12 1017.1
20260510031205 19 0.0 0.0 0.00 0.00 0.00 12 1017.1
20260510025207 20 112 9.7 9.7 0.00 0.00 0.00 12 1019.1
20260510024205 20 112 8.0 19.3 0.00 0.00 0.00 12 1019.0
20260510023205 22 22 11.3 29.0 0.00 0.00 0.00 11 1016.7
20260510022205 23 338 14.5 29.0 0.00 0.00 0.00 10 1016.4
20260510021205 24 45 9.7 9.7 0.00 0.00 0.00 10 1014.2
20260510020205 24 68 3.2 17.7 0.00 0.00 0.00 10 1013.2
20260510015205 25 112 8.0 17.7 0.00 0.00 0.00 10 1013.1
20260510014204 25 90 12.9 19.3 0.00 0.00 0.00 10 1012.1
20260510013205 25 112 14.5 19.3 0.00 0.00 0.00 10 1012.0
20260510012205 25 112 12.9 17.7 0.00 0.00 0.00 10 1012.0
20260510011205 26 112 11.3 17.7 0.00 0.00 0.00 10 1011.9
20260510005205 27 68 8.0 17.7 0.00 0.00 0.00 9 1010.7
20260510004205 27 68 8.0 17.7 0.00 0.00 0.00 9 1010.7
20260510002205 29 112 8.0 24.1 0.00 0.00 0.00 8 1010.4
20260510001205 30 112 11.3 20.9 0.00 0.00 0.00 11 1010.2
20260510000206 32 90 11.3 22.5 0.00 0.00 0.00 10 1011.1
20260509235205 32 158 16.1 22.5 0.00 0.00 0.00 10 1011.0
20260509234205 33 158 17.7 22.5 0.00 0.00 0.00 9 1010.9
20260509233205 33 158 12.9 20.9 0.00 0.00 0.00 9 1010.9
20260509232205 33 112 17.7 20.9 0.00 0.00 0.00 9 1010.8
20260509230205 33 158 8.0 20.9 0.00 0.00 0.00 9 1010.8
20260509225205 33 112 12.9 20.9 0.00 0.00 0.00 9 1010.8
20260509224205 33 158 6.4 20.9 0.00 0.00 0.00 9 1010.9
20260509223205 33 158 6.4 19.3 0.00 0.00 0.00 9 1010.9
20260509222205 33 135 6.4 17.7 0.00 0.00 0.00 9 1010.9
20260509221205 33 135 9.7 17.7 0.00 0.00 0.00 9 1009.8
20260509220206 33 135 1.6 17.7 0.00 0.00 0.00 9 1011.9
20260509215205 33 158 0.0 17.7 0.00 0.00 0.00 9 1011.9
20260509214205 33 158 12.9 19.3 0.00 0.00 0.00 9 1010.9
20260509213205 33 202 6.4 20.9 0.00 0.00 0.00 9 1010.9
20260509212204 33 112 12.9 20.9 0.00 0.00 0.00 9 1010.9
20260509211205 33 135 11.3 20.9 0.00 0.00 0.00 9 1010.9
20260509205206 32 158 3.2 19.3 0.00 0.00 0.00 9 1010.9
20260509204205 32 158 0.0 19.3 0.00 0.00 0.00 10 1012.0
20260509203205 32 158 0.0 16.1 0.00 0.00 0.00 10 1012.0
20260509201205 32 135 0.0 14.5 0.00 0.00 0.00 10 1012.0
20260509195205 32 202 6.4 14.5 0.00 0.00 0.00 10 1012.0
20260509194205 32 158 1.6 17.7 0.00 0.00 0.00 10 1012.0
20260509193205 32 158 9.7 14.5 0.00 0.00 0.00 10 1012.0
20260509192205 32 158 6.4 14.5 0.00 0.00 0.00 10 1012.1
20260509191205 32 112 6.4 12.9 0.00 0.00 0.00 10 1013.1
20260509185205 33 158 0.0 17.7 0.00 0.00 0.00 9 1013.0
20260509183205 33 180 4.8 14.5 0.00 0.00 0.00 9 1012.9
20260509182204 33 158 9.7 12.9 0.00 0.00 0.00 9 1012.9
20260509175206 32 158 0.0 16.1 0.00 0.00 0.00 10 1013.1
20260509172205 32 225 0.0 9.7 0.00 0.00 0.00 10 1013.1
20260509165206 31 112 0.0 9.7 0.00 0.00 0.00 10 1014.3
20260509164205 31 135 0.0 12.9 0.00 0.00 0.00 10 1014.3
20260509163205 30 112 0.0 12.9 0.00 0.00 0.00 11 1014.4
20260509162205 30 158 0.0 4.8 0.00 0.00 0.00 8 1014.4
20260509161205 28 135 0.0 4.8 0.00 0.00 0.00 8 1014.6
20260509155205 27 338 0.0 0.0 0.00 0.00 0.00 9 1013.8
20260509154204 27 292 0.0 0.0 0.00 0.00 0.00 9 1014.9
20260509153205 26 292 0.0 0.0 0.00 0.00 0.00 10 1015.0
20260509152205 25 292 0.0 0.0 0.00 0.00 0.00 10 1015.1
20260509151206 25 292 0.0 3.2 0.00 0.00 0.00 10 1016.2
20260509150205 25 292 0.0 6.4 0.00 0.00 0.00 10 1016.2
20260509145207 25 292 0.0 3.2 0.00 0.00 0.00 10 1016.2
20260509144206 24 225 0.0 6.4 0.00 0.00 0.00 10 1016.4
20260509143206 23 292 0.0 6.4 0.00 0.00 0.00 11 1015.4
20260509141205 23 248 1.6 1.6 0.00 0.00 0.00 11 1015.5
20260509140205 22 225 0.0 0.0 0.00 0.00 0.00 11 1015.5
20260509135205 22 248 0.0 1.6 0.00 0.00 0.00 11 1015.5
20260509133205 21 292 0.0 0.0 0.00 0.00 0.00 12 1015.7
20260509131205 19 292 0.0 6.4 0.00 0.00 0.00 12 1016.0
20260509130205 18 292 0.0 6.4 0.00 0.00 0.00 13 1016.1
20260509125206 17 270 0.0 6.4 0.00 0.00 0.00 13 1016.3
20260509124205 17 292 0.0 6.4 0.00 0.00 0.00 16 1016.4
20260509123205 16 292 0.0 3.2 0.00 0.00 0.00 25 1015.5
20260509122205 13 292 0.0 3.2 0.00 0.00 0.00 26 1015.9
20260509121205 12 292 0.0 0.0 0.00 0.00 0.00 26 1016.1
20260509115205 12 248 0.0 0.0 0.00 0.00 0.00 26 1015.1
20260509114205 12 248 0.0 0.0 0.00 0.00 0.00 25 1016.1
20260509113205 12 248 0.0 0.0 0.00 0.00 0.00 23 1015.0
20260509112205 12 248 0.0 0.0 0.00 0.00 0.00 23 1015.0
20260509111205 12 248 0.0 0.0 0.00 0.00 0.00 23 1015.0
20260509105205 12 202 0.0 0.0 0.00 0.00 0.00 20 1016.1
20260509103205 12 180 0.0 0.0 0.00 0.00 0.00 18 1016.1
20260509102205 12 180 0.0 0.0 0.00 0.00 0.00 15 1016.1
20260509101205 12 0.0 0.0 0.00 0.00 0.00 15 1016.1
20260509100205 12 180 0.0 0.0 0.00 0.00 0.00 15 1016.1